This demonstration page uses our WeatherBlox Daily Observations layout. Learn more.

Left ArrowRight Arrow

Hourly Observations for March 19, 2016

Temp ( °F °C ) Dew Point ( °F °C ) Humidity (%) Winds ( mph kmh ) Pressure ( in mb ) Visibility ( mi km ) Precip ( " mm )
12:53 am 00:53 Cloudy 47 8.3 29 -1.7 50 50 N 3 6 30.09 1019 10 16 N/A
1:53 am 01:53 Cloudy 46 7.8 30 -1.1 54 54 NNE 6 9 30.06 1018 10 16 N/A
2:53 am 02:53 Cloudy 45 7.2 31 -0.6 58 58 NNE 5 7 30.05 1018 10 16 N/A
3:53 am 03:53 Cloudy 45 7.2 31 -0.6 58 58 N 6 9 30.05 1018 10 16 N/A
4:53 am 04:53 Cloudy with Light Rain 45 7.2 33 0.6 63 63 NE 6 9 30.05 1018 10 16 N/A
5:46 am 05:46 Cloudy with Light Rain 43 6.1 34 1.1 71 71 NNE 6 9 30.09 1019 10 16 0.01 0.25
5:53 am 05:53 Cloudy with Light Rain 43 6.1 35 1.7 74 74 NE 7 11 30.05 1018 10 16 0.01 0.25
6:23 am 06:23 Cloudy with Light Rain 42 5.6 36 2.2 79 79 NE 7 11 30.06 1018 10 16 0.01 0.25
6:53 am 06:53 Cloudy with Light Rain 41 5 36 2.2 82 82 NE 9 15 30.03 1017 10 16 0.02 0.51
7:08 am 07:08 Cloudy with Light Rain 41 5 36 2.2 82 82 NE 5 7 30.09 1019 9 14 N/A
7:16 am 07:16 Cloudy with Light Rain 41 5 36 2.2 82 82 NNE 5 7 30.09 1019 10 16 N/A
7:53 am 07:53 Cloudy with Light Rain 41 5 36 2.2 82 82 NE 6 9 30.09 1019 8 13 0.02 0.51
8:53 am 08:53 Cloudy with Light Rain 40 4.4 36 2.2 86 86 ENE 7 11 30.09 1019 7 11 0.05 1.27
9:53 am 09:53 Cloudy with Light Rain 40 4.4 37 2.8 89 89 ENE 5 7 30.09 1019 7 11 0.01 0.25
10:08 am 10:08 Cloudy with Light Rain 40 4.4 36 2.2 86 86 E 6 9 30.09 1019 6 10 0.01 0.25
10:22 am 10:22 Cloudy with Light Rain 40 4.4 37 2.8 89 89 ENE 5 7 30.09 1019 6 10 0.01 0.25
10:29 am 10:29 Cloudy with Light Rain 41 5 36 2.2 82 82 NE 8 13 30.09 1019 7 11 0.01 0.25
10:53 am 10:53 Cloudy with Light Rain 41 5 37 2.8 86 86 NE 7 11 30.11 1020 7 11 0.01 0.25
11:45 am 11:45 Cloudy with Light Rain 41 5 37 2.8 86 86 NNE 8 13 30.12 1020 7 11 0.02 0.51
11:53 am 11:53 Cloudy with Light Rain 41 5 37 2.8 86 86 NNE 9 15 30.13 1020 6 10 0.02 0.51
12:43 pm 12:43 Cloudy with Light Rain 41 5 37 2.8 86 86 NE 9 15 30.12 1020 7 11 0.01 0.25
12:53 pm 12:53 Cloudy with Light Rain 42 5.6 37 2.8 82 82 ENE 10 17 30.12 1020 8 13 0.01 0.25
1:17 pm 13:17 Cloudy with Light Rain 44 6.7 38 3.3 79 79 ENE 10 17 30.09 1019 10 16 N/A
1:24 pm 13:24 Cloudy 44 6.7 38 3.3 79 79 NE 10 17 30.09 1019 10 16 N/A
1:53 pm 13:53 Cloudy with Light Rain 43 6.1 37 2.8 80 80 NNE 8 13 30.10 1019 10 16 N/A
2:11 pm 14:11 Cloudy with Light Rain 43 6.1 36 2.2 76 76 NE 8 13 30.09 1019 10 16 N/A
2:30 pm 14:30 Cloudy 43 6.1 35 1.7 74 74 ENE 8 13 30.09 1019 10 16 N/A
2:53 pm 14:53 Cloudy 45 7.2 36 2.2 71 71 NE 10 17 30.09 1019 10 16 N/A
3:09 pm 15:09 Cloudy 44 6.7 35 1.7 71 71 ENE 8 13 30.09 1019 10 16 N/A
3:53 pm 15:53 Cloudy 46 7.8 34 1.1 63 63 NNE 8 13 30.11 1020 10 16 N/A
4:53 pm 16:53 Cloudy 45 7.2 33 0.6 63 63 NE 5 7 30.11 1020 10 16 N/A
6:53 pm 18:53 Cloudy 45 7.2 31 -0.6 58 58 NNE 5 7 30.11 1020 10 16 N/A
7:53 pm 19:53 Cloudy 45 7.2 30 -1.1 56 56 NNE 6 9 30.12 1020 10 16 N/A
8:53 pm 20:53 Cloudy 43 6.1 31 -0.6 63 63 VRB 7 11 30.14 1021 10 16 N/A
10:53 pm 22:53 Cloudy 40 4.4 27 -2.8 60 60 NNE 8 13 30.14 1021 10 16 N/A

Powered by AerisWeather